Temperature
5 7 6 6 6 6 6 6 7 8 9 9 8 8 8 8 7 7 6 6 5 5 5 5 5 5 4 4 4 4 4 4 4 4 4 4 4 4 4 3 3 3 2 2
4 6 6 6 6 6 6 7 7 8 8 8 8 8 8 7 7 6 5 5 5 4 4 4 4 4 4 4 4 4 4 4 4 4 3 3 3 3 3 3 3 2 2 2
4 4 4 4 5 6 6 6 7 6 7 7 6 6 7 6 6 6 5 4 4 4 4 4 3 3 3 3 3 3 3 3 3 3 3 3 3 2 2 2 2 2 1 1
3 3 3 4 5 5 5 5 5 5 6 6 5 6 6 5 5 4 4 4 3 3 3 3 3 3 3 3 3 3 3 3 3 2 2 2 2 2 2 1 1 1 1 1
2 3 3 4 4 4 4 3 4 4 4 4 5 5 4 4 4 4 3 3 3 3 3 2 2 2 2 2 2 2 2 2 2 2 2 1 1 1 1 1 1 1 1 1
2 3 3 3 3 4 4 3 3 3 3 3 4 2 2 3 3 3 2 2 2 2 2 2 2 1 1 1 1 1 1 1 1 1 1 1 1 1 1 0 0 0 0 0
2 2 2 2 3 4 2 2 2 3 3 2 2 1 2 2 2 1 1 1 1 1 1 1 1 1 1 1 1 1 1 1 1 0 0 0 0 0 -0 -0 -0 -0 -0 -0
1 1 1 1 2 1 1 2 2 2 2 1 1 1 1 1 0 0 0 0 0 0 0 0 0 0 0 0 -0 -0 0 0 0 0 -0 -0 -0 -0 -0 -1 -1 -1 -1 -1
0 1 1 1 1 1 1 1 1 1 0 0 -0 -0 -0 -1 -1 -1 -1 -1 -1 -0 -0 -0 -1 -1 -0 -1 -1 -1 -0 -0 -0 -0 -1 -1 -1 -1 -1 -1 -1 -1 -1 -1
0 0 1 0 0 0 0 -0 -0 -0 -1 -1 -1 -1 -1 -2 -2 -2 -2 -1 -1 -1 -1 -1 -1 -1 -1 -1 -1 -1 -1 -1 -1 -1 -1 -1 -1 -2 -2 -2 -2 -2 -2 -2
-1 -1 -1 -0 -1 -1 -1 -1 -1 -1 -1 -2 -2 -2 -2 -3 -3 -2 -2 -2 -2 -2 -2 -2 -2 -2 -2 -2 -2 -2 -2 -2 -2 -2 -2 -2 -2 -2 -2 -2 -3 -3 -3 -3
-1 -2 -2 -2 -2 -2 -2 -2 -2 -2 -2 -2 -2 -3 -3 -3 -3 -3 -3 -3 -2 -2 -2 -3 -3 -3 -3 -3 -3 -3 -3 -3 -3 -3 -3 -3 -3 -3 -3 -3 -3 -3 -3 -3
-2 -2 -3 -3 -3 -3 -3 -3 -3 -3 -3 -3 -3 -3 -3 -3 -3 -3 -3 -3 -3 -3 -3 -3 -3 -3 -3 -3 -3 -3 -3 -3 -3 -3 -3 -4 -4 -4 -3 -3 -3 -3 -3 -3
-3 -3 -4 -4 -4 -4 -4 -4 -4 -4 -4 -4 -4 -4 -4 -4 -4 -4 -4 -4 -4 -4 -4 -4 -4 -4 -4 -4 -4 -4 -4 -4 -4 -4 -4 -5 -4 -4 -4 -4 -4 -4 -4 -4
-4 -4 -4 -5 -5 -5 -5 -5 -5 -5 -5 -5 -5 -5 -5 -5 -5 -5 -5 -5 -5 -5 -5 -5 -5 -5 -5 -5 -5 -5 -5 -5 -5 -5 -5 -5 -5 -5 -5 -5 -5 -4 -4 -4
-5 -5 -5 -5 -5 -5 -5 -5 -5 -6 -5 -5 -5 -5 -5 -5 -5 -5 -5 -5 -5 -5 -5 -5 -5 -5 -5 -5 -5 -5 -5 -5 -5 -5 -5 -5 -5 -5 -5 -5 -5 -5 -5 -5
-6 -6 -6 -6 -6 -6 -6 -6 -6 -6 -6 -6 -6 -6 -6 -6 -6 -6 -6 -6 -6 -6 -6 -6 -6 -6 -6 -6 -6 -6 -6 -6 -6 -6 -6 -6 -6 -6 -6 -6 -6 -6 -6 -5
-6 -6 -7 -7 -7 -7 -7 -7 -6 -6 -6 -6 -6 -6 -6 -6 -7 -7 -7 -7 -7 -6 -6 -7 -7 -7 -7 -7 -7 -7 -7 -7 -7 -7 -7 -7 -7 -7 -6 -6 -6 -6 -6 -6
-7 -7 -7 -7 -7 -7 -7 -7 -7 -7 -7 -7 -7 -7 -7 -7 -7 -7 -7 -7 -7 -7 -7 -7 -7 -7 -7 -7 -7 -7 -7 -7 -7 -7 -7 -7 -7 -7 -7 -7 -7 -7 -6 -6
-7 -7 -7 -7 -7 -7 -7 -7 -7 -7 -7 -7 -7 -7 -7 -8 -8 -8 -8 -8 -8 -8 -8 -8 -8 -8 -8 -8 -8 -8 -8 -8 -8 -8 -8 -8 -8 -8 -7 -7 -7 -7 -7 -7
-8 -8 -7 -7 -7 -7 -7 -7 -8 -8 -8 -8 -8 -8 -8 -8 -8 -8 -8 -8 -8 -8 -8 -8 -8 -8 -8 -8 -8 -8 -8 -8 -8 -8 -8 -8 -8 -8 -8 -8 -7 -7 -7 -7
-8 -8 -8 -8 -8 -8 -8 -8 -8 -8 -8 -8 -8 -9 -9 -9 -9 -9 -9 -9 -9 -9 -9 -9 -9 -9 -9 -9 -9 -9 -9 -9 -9 -9 -9 -8 -8 -8 -8 -8 -8 -7 -7 -7
-8 -8 -8 -8 -8 -8 -8 -8 -9 -9 -9 -9 -9 -9 -9 -9 -9 -10 -9 -9 -9 -9 -9 -9 -9 -9 -9 -9 -9 -9 -9 -9 -9 -9 -9 -9 -9 -9 -8 -8 -8 -8 -8 -7
-9 -9 -9 -9 -9 -9 -9 -9 -9 -9 -9 -9 -10 -10 -10 -10 -10 -10 -10 -10 -9 -9 -9 -9 -9 -9 -9 -9 -9 -9 -9 -9 -9 -9 -9 -9 -9 -9 -8 -8 -8 -8 -8 -7
-9 -9 -9 -9 -9 -10 -10 -10 -10 -10 -10 -10 -10 -10 -10 -10 -10 -10 -10 -10 -10 -9 -9 -9 -9 -9 -9 -9 -9 -9 -9 -9 -9 -9 -9 -9 -9 -9 -9 -8 -8 -8 -8 -7
-10 -10 -10 -10 -10 -10 -10 -10 -10 -10 -10 -10 -10 -10 -10 -10 -10 -10 -10 -10 -10 -10 -9 -9 -9 -9 -9 -9 -9 -9 -9 -9 -9 -9 -9 -9 -9 -9 -9 -8 -8 -8 -8 -7
-10 -10 -10 -10 -10 -11 -11 -11 -11 -11 -11 -11 -11 -10 -10 -10 -10 -10 -10 -10 -10 -10 -10 -9 -9 -9 -9 -9 -9 -9 -9 -9 -9 -9 -9 -9 -9 -9 -9 -8 -8 -8 -8 -8
Wind_Speed
3 2 3 6 9 10 9 7 5 4 4 4 4 5 6 6 6 6 5 5 5 4 4 3 3 3 2 2 2 1 1 0 1 1 1 2 2 2 3 4 5 4 5 6
3 3 2 4 7 11 10 9 8 5 4 2 3 4 5 6 6 5 5 4 4 4 4 3 3 2 2 2 1 1 1 0 1 1 2 2 2 2 3 4 5 5 5 6
3 3 1 4 6 8 7 6 7 7 4 2 2 3 3 4 5 5 5 4 4 3 3 2 2 2 2 2 1 1 1 1 1 1 2 2 3 3 4 4 5 5 5 6
2 3 5 3 0 3 5 3 1 1 1 2 2 2 4 4 4 4 4 4 3 3 3 2 2 2 2 2 2 1 1 2 2 2 2 3 3 3 4 4 4 5 6 7
2 3 3 1 1 0 3 2 1 1 1 1 3 3 4 5 5 4 4 4 3 3 3 2 2 2 2 2 2 2 2 2 2 2 3 3 3 4 4 4 5 5 6 7
2 2 3 0 2 2 2 1 2 1 1 1 1 1 0 4 6 5 5 4 3 3 3 3 3 3 2 2 2 2 3 3 3 3 3 4 4 4 4 4 5 6 7 7
3 2 1 3 3 2 3 2 2 2 2 2 2 2 2 5 5 5 5 5 4 4 3 3 3 3 3 3 3 3 3 3 4 3 3 4 4 4 4 5 5 6 7 7
2 2 2 3 2 2 1 2 4 4 4 5 4 4 5 5 5 5 5 5 5 4 3 4 3 3 3 3 4 3 3 3 4 4 4 4 4 4 4 4 5 6 6 6
2 2 2 3 3 3 4 4 4 4 5 5 4 4 4 4 4 4 4 4 4 4 4 4 4 3 3 4 4 4 4 4 4 4 4 4 4 4 4 4 4 5 5 6
1 2 3 4 5 6 6 5 5 5 5 5 4 3 3 3 3 3 4 4 4 4 4 4 4 4 3 4 4 4 4 4 4 4 4 4 3 3 3 4 4 5 5 6
1 1 2 3 4 5 6 6 6 6 6 5 4 3 3 3 3 3 3 3 3 3 3 4 4 4 5 5 4 4 4 4 4 4 4 4 4 4 4 4 5 5 5 5
1 1 1 2 3 5 5 5 5 5 5 5 4 3 3 2 2 2 2 3 3 3 3 4 4 5 5 5 5 4 5 5 4 3 4 4 4 5 7 7 9 10 9 8
2 4 3 3 5 5 5 5 5 4 4 4 4 3 3 2 3 3 3 3 3 3 4 4 4 5 5 6 6 5 5 5 4 4 4 4 4 5 6 8 9 9 10 10
5 4 3 3 3 5 4 4 5 5 4 4 3 3 2 2 2 3 3 3 3 3 4 4 5 5 5 6 6 5 5 6 5 4 4 4 4 5 5 5 6 6 7 9
6 4 2 2 3 3 4 4 4 4 4 4 3 3 2 2 2 3 3 4 4 4 4 4 5 5 6 6 6 6 5 4 4 4 4 4 4 4 4 4 5 5 5 6
3 3 3 3 3 3 3 3 3 2 3 3 3 3 3 2 2 3 3 3 3 4 5 5 5 6 6 5 6 5 5 9 7 5 4 4 4 4 4 4 4 4 4 4
2 2 2 2 3 3 3 2 2 2 2 2 3 3 3 2 3 3 3 4 3 4 4 5 5 6 5 5 5 5 5 6 9 6 4 4 4 4 4 4 4 4 4 5
1 1 0 0 0 1 2 2 2 2 2 2 3 3 3 2 3 4 4 4 4 5 5 5 5 5 5 5 5 4 4 4 4 4 4 4 5 4 4 4 4 4 4 5
3 2 1 1 1 1 1 2 2 2 2 2 2 3 3 3 3 4 4 4 5 6 6 5 9 7 5 6 7 4 4 4 4 4 4 6 6 4 4 4 4 4 4 4
3 3 3 3 2 2 2 2 2 2 2 2 2 3 3 4 4 4 4 4 4 4 5 7 7 5 5 6 7 3 3 4 4 4 4 4 4 4 4 4 4 4 4 4
3 3 3 3 3 3 2 2 2 3 3 3 3 3 4 4 4 4 4 5 5 6 6 9 6 5 5 5 6 3 3 3 3 4 4 4 4 4 4 4 4 4 4 4
3 3 3 3 3 3 3 3 2 3 3 3 3 3 3 4 4 4 4 4 5 9 7 5 4 6 7 6 3 3 3 3 3 3 4 4 4 4 4 4 4 4 4 3
3 3 3 3 3 3 4 3 3 3 3 3 4 4 4 4 4 4 5 4 4 8 6 4 7 8 8 4 3 3 3 4 4 4 4 4 4 3 4 4 4 4 3 3
3 3 3 3 3 3 4 4 3 3 3 3 4 4 4 4 4 3 4 7 9 9 5 6 9 8 7 3 3 3 3 3 4 3 4 4 4 3 3 4 4 3 3 4
3 3 2 2 3 3 3 4 3 3 3 3 3 4 3 3 3 4 4 5 7 8 5 6 8 8 5 3 3 3 3 3 3 3 3 3 4 4 4 3 3 3 3 3
3 3 2 3 3 3 3 3 3 3 3 3 3 3 3 3 3 3 3 4 5 7 5 4 4 5 4 3 3 3 3 4 4 4 3 3 4 4 3 3 4 3 3 2
3 2 2 2 2 2 2 3 3 3 3 3 4 4 3 3 3 3 3 3 4 4 4 3 3 3 3 3 3 3 3 3 3 3 3 3 3 3 3 3 3 2 2 2
Wind_Direction
276 301 186 200 204 201 204 209 211 238 228 198 161 135 124 114 110 112 116 113 106 98 90 89 87 89 91 95 93 97 110 130 243 281 299 297 291 290 291 289 288 281 285 288
261 282 263 228 210 208 216 222 232 251 282 56 92 103 115 121 123 125 125 115 101 90 85 77 69 69 72 60 53 62 75 350 335 338 327 311 297 295 295 290 289 288 286 289
211 193 229 244 225 210 209 214 215 230 233 97 67 63 104 117 122 130 134 123 108 95 89 79 64 58 43 30 30 32 8 349 352 337 317 307 309 300 286 285 289 290 289 288
169 157 208 220 329 193 196 211 197 174 167 124 121 76 71 82 98 99 104 105 101 90 79 65 52 45 35 34 26 7 355 348 342 330 311 308 304 294 292 292 291 293 294 292
186 203 232 224 359 144 181 210 338 191 125 85 97 75 56 55 69 77 79 82 80 78 79 60 51 39 27 19 15 0 349 341 333 325 311 306 300 295 295 300 300 296 294 293
215 214 217 312 325 320 132 203 4 62 167 151 102 153 128 51 58 62 59 62 61 56 62 54 40 33 25 7 6 354 343 336 325 312 304 300 296 297 298 297 295 298 296 294
221 221 252 355 336 54 142 228 1 54 65 76 72 105 88 65 58 57 56 52 52 54 51 37 29 29 16 3 350 341 342 333 327 322 309 299 299 303 304 304 302 300 298 296
190 200 240 347 59 103 124 50 48 52 61 74 78 73 62 57 52 49 52 48 46 47 35 21 19 28 14 347 335 343 343 334 330 326 319 317 310 307 305 306 303 302 304 306
166 173 78 57 79 61 61 56 53 59 65 77 72 68 61 54 48 43 43 42 39 40 25 13 10 19 4 332 337 344 343 337 329 324 321 316 310 308 311 310 305 305 308 310
114 94 74 69 52 46 51 52 48 60 69 72 68 63 60 56 47 35 35 37 32 31 24 9 5 6 349 332 336 339 333 324 320 320 317 315 310 306 307 305 304 307 309 311
134 83 55 54 49 48 48 50 49 49 52 60 61 59 60 50 36 33 32 26 27 24 11 357 356 354 350 347 350 342 328 319 317 315 312 312 310 301 297 286 294 301 298 300
106 35 61 40 37 49 55 49 46 50 41 36 48 52 51 40 24 21 18 18 18 10 360 349 351 351 349 346 344 336 328 323 318 316 312 311 312 316 316 310 311 308 305 303
47 31 50 54 48 48 51 40 36 43 44 39 33 43 49 31 12 13 12 14 7 354 344 343 345 344 345 344 342 336 324 319 318 318 315 313 313 313 315 321 321 318 319 319
45 50 55 44 45 42 50 49 47 45 42 41 36 33 36 26 8 5 357 349 343 342 340 341 340 338 341 341 336 328 321 316 316 309 306 306 306 305 306 310 317 320 324 324
28 32 45 56 65 57 53 59 57 46 40 30 26 20 18 15 355 342 340 339 342 342 339 339 335 331 337 336 329 322 317 311 308 305 303 303 303 305 307 308 310 315 322 324
12 38 62 65 63 56 49 51 54 32 21 13 7 1 356 353 339 339 343 344 339 330 327 327 323 323 328 328 324 319 313 312 313 310 308 310 312 311 310 311 314 318 320 322
35 47 47 38 27 24 20 20 21 3 355 353 348 345 343 344 344 339 337 339 330 318 317 315 312 318 324 323 317 311 309 310 312 310 310 310 311 311 310 312 312 313 315 320
41 47 11 286 300 335 347 355 356 348 334 330 335 336 333 329 322 319 321 326 327 323 321 318 318 323 321 317 312 307 306 305 305 307 310 311 312 308 307 308 309 310 317 321
37 41 23 12 7 357 321 322 328 333 331 329 327 324 323 320 314 313 317 319 316 312 314 318 319 321 317 313 312 303 302 303 307 311 310 310 313 314 314 313 314 317 318 323
26 22 23 20 16 2 330 326 335 332 326 324 319 319 320 317 317 317 317 308 298 294 305 313 317 316 314 312 311 305 306 308 311 312 311 311 311 314 315 315 317 319 321 323
9 7 9 7 356 350 338 330 329 322 324 328 319 308 306 309 312 311 309 304 305 309 312 312 315 312 312 311 310 312 310 308 308 309 310 310 311 314 318 320 319 319 319 321
353 352 349 348 347 339 338 341 331 320 320 321 317 308 305 307 311 310 296 285 298 310 315 311 313 312 316 313 313 315 310 307 305 305 307 310 314 316 315 315 315 315 319 323
336 334 332 335 331 322 327 330 322 312 305 303 303 302 298 296 296 294 300 305 309 312 317 311 312 315 319 320 319 314 309 306 304 302 304 307 307 310 313 312 312 313 317 322
336 332 330 328 329 325 320 317 314 307 298 296 294 291 289 295 300 295 285 300 311 314 314 312 318 322 323 323 316 309 303 300 300 300 302 303 304 304 305 309 313 318 321 321
330 325 323 324 323 314 311 316 319 313 309 305 301 300 295 286 283 293 298 298 306 314 315 319 323 325 326 320 313 303 298 296 299 302 301 301 302 303 306 310 315 318 321 325
329 326 318 306 294 293 301 308 310 309 312 315 315 315 314 307 298 297 301 304 304 310 314 315 319 321 321 315 306 301 298 300 302 303 303 300 300 301 303 307 311 312 316 319
324 322 323 327 326 318 312 307 303 304 306 303 305 307 308 308 309 310 308 307 309 314 315 315 316 314 311 309 306 304 301 300 299 300 300 298 298 299 302 301 308 317 326 330
Height
1419 1416 1418 1422 1424 1426 1430 1429 1432 1425 1424 1425 1427 1429 1431 1434 1436 1439 1441 1443 1444 1446 1447 1448 1449 1450 1451 1452 1453 1454 1454 1455 1455 1455 1455 1455 1454 1453 1453 1452 1450 1449 1447 1445
1422 1418 1418 1420 1420 1422 1424 1425 1425 1425 1426 1424 1425 1428 1431 1433 1436 1439 1441 1443 1444 1445 1446 1447 1448 1449 1449 1450 1451 1451 1452 1452 1452 1452 1452 1451 1450 1449 1448 1447 1445 1444 1442 1440
1424 1422 1422 1426 1421 1420 1422 1421 1423 1427 1427 1427 1428 1430 1431 1433 1436 1438 1440 1442 1443 1444 1445 1446 1446 1447 1447 1448 1448 1449 1449 1449 1449 1448 1448 1447 1446 1445 1444 1442 1441 1439 1437 1435
1425 1425 1429 1423 1417 1416 1419 1422 1423 1425 1426 1427 1429 1431 1433 1434 1436 1438 1440 1441 1442 1443 1444 1445 1445 1446 1446 1446 1446 1446 1446 1446 1446 1445 1444 1443 1442 1441 1440 1438 1436 1434 1433 1431
1425 1424 1422 1420 1419 1419 1421 1424 1425 1425 1426 1428 1429 1430 1434 1435 1436 1437 1439 1440 1441 1442 1443 1443 1443 1444 1444 1444 1444 1444 1443 1443 1443 1442 1441 1440 1438 1437 1436 1434 1432 1430 1429 1427
1424 1423 1423 1423 1419 1417 1420 1427 1425 1425 1426 1428 1428 1434 1437 1436 1436 1437 1438 1439 1440 1440 1441 1441 1442 1442 1442 1442 1441 1441 1441 1440 1440 1439 1438 1436 1435 1434 1432 1430 1428 1426 1424 1423
1425 1425 1425 1424 1420 1418 1428 1430 1426 1425 1426 1427 1430 1433 1435 1435 1436 1437 1437 1438 1439 1439 1439 1440 1440 1440 1440 1440 1439 1439 1438 1438 1437 1436 1435 1433 1432 1430 1429 1427 1425 1423 1421 1419
1424 1427 1431 1425 1423 1426 1428 1426 1426 1426 1427 1428 1430 1432 1433 1434 1435 1436 1437 1437 1437 1437 1438 1438 1438 1438 1438 1438 1438 1437 1436 1435 1434 1433 1431 1430 1428 1426 1425 1423 1421 1419 1417 1414
1426 1429 1426 1425 1425 1426 1426 1427 1427 1427 1428 1429 1430 1432 1433 1434 1435 1435 1436 1436 1437 1437 1437 1437 1437 1437 1436 1436 1435 1434 1433 1432 1431 1429 1428 1426 1425 1423 1421 1419 1417 1415 1413 1411
1425 1425 1426 1427 1427 1427 1427 1428 1428 1429 1429 1430 1431 1432 1433 1434 1434 1435 1435 1436 1436 1436 1435 1435 1436 1435 1435 1434 1433 1432 1430 1429 1427 1426 1424 1423 1421 1420 1418 1416 1414 1412 1410 1408
1425 1427 1427 1427 1428 1428 1428 1429 1429 1430 1430 1431 1431 1432 1433 1433 1434 1434 1434 1435 1435 1435 1434 1434 1434 1433 1432 1431 1430 1428 1427 1425 1424 1422 1421 1419 1418 1416 1415 1413 1412 1410 1408 1406
1427 1427 1428 1429 1429 1429 1428 1429 1430 1430 1430 1431 1431 1432 1432 1433 1433 1433 1433 1433 1433 1433 1433 1432 1431 1431 1430 1429 1427 1425 1424 1422 1421 1419 1417 1416 1414 1412 1411 1410 1408 1407 1405 1403
1426 1427 1427 1428 1429 1429 1429 1429 1430 1430 1430 1431 1431 1431 1432 1432 1432 1432 1432 1432 1432 1431 1431 1430 1429 1428 1427 1426 1424 1423 1421 1419 1418 1416 1414 1412 1411 1409 1406 1405 1404 1403 1401 1399
1427 1427 1428 1429 1429 1429 1429 1429 1430 1430 1430 1430 1430 1430 1431 1431 1431 1430 1430 1430 1430 1429 1428 1427 1426 1425 1424 1423 1421 1420 1418 1416 1415 1413 1411 1410 1408 1406 1404 1402 1399 1397 1397 1395
1427 1428 1428 1428 1429 1429 1429 1429 1429 1429 1429 1429 1430 1430 1429 1429 1429 1429 1428 1428 1427 1426 1425 1424 1423 1422 1421 1419 1418 1416 1415 1413 1411 1410 1408 1407 1405 1403 1401 1399 1397 1395 1393 1391
1428 1428 1428 1428 1428 1428 1429 1428 1428 1428 1428 1428 1428 1428 1428 1428 1427 1427 1426 1426 1424 1423 1422 1421 1420 1419 1417 1416 1414 1412 1411 1409 1408 1406 1405 1403 1402 1400 1398 1396 1394 1392 1390 1388
1427 1427 1427 1427 1427 1428 1428 1428 1427 1427 1427 1427 1427 1427 1426 1426 1425 1424 1423 1423 1422 1420 1419 1418 1416 1415 1414 1412 1410 1409 1407 1406 1404 1403 1401 1400 1399 1397 1395 1393 1392 1390 1388 1387
1427 1427 1427 1427 1427 1426 1426 1426 1426 1426 1425 1425 1425 1425 1424 1423 1422 1421 1420 1419 1418 1417 1416 1414 1413 1411 1409 1408 1407 1405 1404 1402 1401 1399 1398 1397 1396 1394 1393 1391 1389 1388 1386 1385
1425 1425 1426 1426 1425 1425 1425 1425 1424 1424 1424 1423 1423 1422 1421 1420 1420 1418 1417 1416 1414 1413 1412 1411 1409 1407 1406 1404 1403 1401 1400 1399 1397 1396 1395 1394 1393 1391 1390 1388 1387 1386 1384 1383
1424 1424 1424 1424 1424 1424 1423 1423 1422 1422 1421 1421 1420 1419 1418 1417 1417 1415 1414 1412 1411 1409 1408 1407 1405 1403 1402 1401 1400 1398 1397 1395 1394 1393 1392 1391 1390 1389 1387 1386 1385 1384 1382 1381
1423 1423 1423 1422 1422 1422 1421 1421 1420 1419 1419 1418 1417 1416 1415 1414 1413 1412 1410 1408 1407 1407 1405 1403 1401 1400 1398 1397 1396 1395 1394 1393 1392 1391 1390 1389 1387 1386 1385 1384 1383 1382 1381 1380
1422 1422 1421 1421 1420 1420 1419 1419 1418 1417 1416 1415 1414 1413 1412 1411 1410 1409 1407 1406 1404 1403 1402 1399 1398 1396 1395 1394 1393 1392 1391 1390 1389 1388 1387 1386 1385 1384 1383 1382 1382 1381 1380 1379
1421 1420 1420 1419 1418 1418 1417 1416 1416 1415 1413 1412 1411 1410 1409 1408 1407 1406 1404 1403 1401 1400 1398 1396 1395 1394 1393 1392 1391 1389 1388 1388 1387 1386 1385 1384 1384 1383 1382 1381 1380 1379 1378 1377
1420 1419 1418 1418 1417 1416 1415 1414 1413 1412 1411 1410 1409 1408 1407 1405 1404 1403 1401 1400 1399 1397 1396 1394 1393 1392 1391 1389 1388 1387 1386 1385 1385 1384 1383 1382 1382 1381 1380 1379 1379 1378 1377 1377
1418 1417 1417 1416 1415 1413 1412 1411 1410 1409 1408 1407 1406 1405 1404 1403 1401 1400 1399 1397 1396 1395 1393 1392 1391 1389 1388 1387 1386 1385 1384 1383 1383 1382 1381 1381 1380 1379 1379 1378 1377 1377 1376 1376
1417 1416 1415 1414 1413 1412 1410 1409 1408 1406 1405 1404 1403 1402 1401 1400 1399 1397 1396 1395 1394 1392 1391 1390 1388 1387 1386 1384 1384 1383 1382 1381 1381 1380 1380 1379 1378 1378 1377 1376 1376 1376 1375 1375
1415 1414 1413 1412 1411 1410 1409 1407 1406 1405 1404 1402 1401 1400 1399 1398 1396 1395 1394 1393 1391 1390 1389 1388 1386 1385 1384 1383 1382 1381 1380 1379 1379 1378 1378 1377 1376 1376 1375 1375 1375 1375 1374 1374